This is the latest recevied weather packets stored in our database for station/object KD0SBN-3. If no packets are shown the sender has not sent any weather packets the latest 10 day(s).
| Time | Temp. | Humidity | Pressure | Rain* | Wind** | Luminosity | Snow |
|---|---|---|---|---|---|---|---|
| 1777833802 | 16.11° C | 21% | 1027.4 hPa | 0 mm | - | 635 W/m² | - |
| 1777833497 | 14.44° C | 20% | 1027.7 hPa | 0 mm | - | 796 W/m² | - |
| 1777833195 | 15.56° C | 22% | 1027.9 hPa | 0 mm | - | 788 W/m² | - |
| 1777832892 | 16.11° C | 20% | 1027.9 hPa | 0 mm | - | 760 W/m² | - |
| 1777832591 | 15° C | 19% | 1027.7 hPa | 0 mm | - | 669 W/m² | - |
| 1777832288 | 15° C | 20% | 1028.3 hPa | 0 mm | - | 640 W/m² | - |
| 1777831985 | 15° C | 20% | 1028.1 hPa | 0 mm | - | 668 W/m² | - |
| 1777831681 | 15.56° C | 21% | 1028 hPa | 0 mm | - | 743 W/m² | - |
| 1777831380 | 15.56° C | 21% | 1028 hPa | 0 mm | - | 802 W/m² | - |
| 1777831075 | 15.56° C | 22% | 1028.3 hPa | 0 mm | - | 795 W/m² | - |
| 1777830774 | 15° C | 22% | 1028.4 hPa | 0 mm | - | 792 W/m² | - |
| 1777830474 | 14.44° C | 23% | 1028.4 hPa | 0 mm | - | 781 W/m² | - |
| 1777830173 | 13.33° C | 23% | 1028.5 hPa | 0 mm | - | 784 W/m² | - |
| 1777829874 | 13.89° C | 25% | 1028.9 hPa | 0 mm | - | 831 W/m² | - |
| 1777829570 | 13.33° C | 24% | 1028.8 hPa | 0 mm | - | 362 W/m² | - |
| 1777829267 | 14.44° C | 24% | 1028.9 hPa | 0 mm | - | 420 W/m² | - |
| 1777828964 | 14.44° C | 23% | 1028.8 hPa | 0 mm | - | 675 W/m² | - |
| 1777828660 | 13.33° C | 24% | 1028.8 hPa | 0 mm | - | 652 W/m² | - |
| 1777828357 | 13.33° C | 23% | 1028.9 hPa | 0 mm | - | 610 W/m² | - |
| 1777828055 | 13.89° C | 23% | 1029.3 hPa | 0 mm | - | 446 W/m² | - |
| 1777827751 | 12.78° C | 23% | 1029.2 hPa | 0 mm | - | 508 W/m² | - |
| 1777827448 | 12.78° C | 23% | 1029 hPa | 0 mm | - | 638 W/m² | - |
| 1777827146 | 13.33° C | 23% | 1029 hPa | 0 mm | - | 668 W/m² | - |
| 1777826841 | 13.89° C | 23% | 1029 hPa | 0 mm | - | 493 W/m² | - |
| 1777826540 | 13.33° C | 25% | 1029 hPa | 0 mm | - | 776 W/m² | - |
* Rain latest hour (hover to see other rain measurements)
** Current wind speed in m/s (hover to see current wind gust speed)